CW7945 Weather Reports


Display with metric or nautical units.
time (UTC)temp
F
wind
direction
speed
MPH
gust
MPH
rain 1hr
in
rain 24hr
in
rain mn
in
humidity
%
barometer
mb
20260506211516 66 0.0 5.0 0.00 0.16 0.16 86 1006.8
20260506210516 66 248 2.0 9.0 0.00 0.16 0.16 86 1006.9
20260506205517 66 248 1.0 9.0 0.00 0.16 0.16 85 1006.9
20260506204516 67 248 1.0 8.0 0.00 0.16 0.16 86 1006.8
20260506203516 66 248 2.0 11.0 0.00 0.16 0.16 86 1006.7
20260506202536 65 248 2.0 7.0 0.00 0.16 0.16 87 1006.7
20260506201516 65 248 1.0 6.0 0.00 0.16 0.16 88 1006.6
20260506200516 65 225 5.0 15.0 0.00 0.16 0.16 87 1006.8
20260506195516 65 248 3.0 10.0 0.00 0.16 0.16 89 1006.8
20260506194516 64 225 2.0 8.0 0.00 0.16 0.16 89 1007.0
20260506193516 64 248 2.0 9.0 0.00 0.16 0.16 90 1007.1
20260506192516 64 225 1.0 9.0 0.00 0.16 0.16 91 1007.3
20260506191516 63 248 1.0 10.0 0.00 0.16 0.16 92 1007.4
20260506190516 63 248 2.0 13.0 0.00 0.16 0.16 92 1007.3
20260506185516 63 0.0 6.0 0.00 0.16 0.16 92 1007.4
20260506184516 63 248 2.0 12.0 0.00 0.16 0.16 91 1007.7
20260506183516 63 248 1.0 4.0 0.00 0.16 0.16 90 1007.6
20260506182516 63 225 1.0 8.0 0.01 0.16 0.16 90 1007.7
20260506181536 63 248 1.0 9.0 0.01 0.16 0.16 91 1007.7
20260506180516 63 225 1.0 9.0 0.01 0.16 0.16 90 1007.7
20260506175536 63 225 4.0 16.0 0.01 0.16 0.16 90 1007.9
20260506174516 63 225 6.0 19.0 0.01 0.16 0.16 90 1007.9
20260506173516 63 225 4.0 16.0 0.01 0.16 0.16 91 1007.8
20260506172516 63 225 3.0 11.0 0.00 0.15 0.15 91 1008.1
20260506171516 63 248 4.0 17.0 0.01 0.15 0.15 91 1008.1
20260506170517 63 225 6.0 13.0 0.02 0.15 0.15 92 1008.1
20260506165516 63 225 5.0 14.0 0.03 0.15 0.15 92 1007.9
20260506164516 63 248 4.0 17.0 0.05 0.15 0.15 93 1007.9
20260506163516 62 225 2.0 11.0 0.07 0.15 0.15 93 1007.9
20260506162516 62 225 1.0 8.0 0.09 0.15 0.15 94 1008.2
20260506161516 62 0.0 4.0 0.10 0.14 0.14 94 1008.7
20260506160516 62 0.0 3.0 0.10 0.13 0.13 93 1009.1
20260506155516 62 0.0 0.0 0.09 0.12 0.12 92 1009.2
20260506154516 63 0.0 0.0 0.08 0.10 0.10 92 1009.4
20260506153536 63 0.0 0.0 0.07 0.08 0.08 91 1009.2
20260506152517 63 0.0 0.0 0.06 0.06 0.06 90 1009.4
20260506151517 64 0.0 0.0 0.04 0.04 0.04 89 1009.3
20260506150516 64 0.0 8.0 0.03 0.03 0.03 89 1009.2
20260506145516 64 248 1.0 9.0 0.03 0.03 0.03 87 1009.1
20260506144516 64 0.0 0.0 0.02 0.02 0.02 85 1009.2
20260506143517 65 248 4.0 11.0 0.01 0.01 0.01 83 1009.3
20260506142516 66 248 6.0 16.0 0.00 0.00 0.00 80 1009.4
20260506141517 67 248 7.0 14.0 0.00 0.00 0.00 77 1009.4
20260506140516 68 248 6.0 13.0 0.00 0.00 0.00 75 1009.2
20260506135516 68 225 3.0 11.0 0.00 0.00 0.00 75 1008.9
20260506134516 68 248 5.0 18.0 0.00 0.00 0.00 75 1009.1
20260506133516 67 248 3.0 8.0 0.00 0.00 0.00 76 1009.3
20260506132517 67 248 6.0 13.0 0.00 0.00 0.00 76 1009.2
20260506131516 67 248 5.0 18.0 0.00 0.00 0.00 76 1009.4
20260506130516 67 225 8.0 15.0 0.00 0.00 0.00 76 1009.6
20260506125516 67 248 2.0 12.0 0.00 0.00 0.00 76 1009.6
20260506124516 67 248 3.0 12.0 0.00 0.00 0.00 77 1009.5
20260506123516 66 225 3.0 12.0 0.00 0.00 0.00 78 1009.5
20260506122537 66 225 4.0 12.0 0.00 0.00 0.00 78 1009.2
20260506121516 66 225 4.0 11.0 0.00 0.00 0.00 78 1009.2
20260506120516 66 225 3.0 10.0 0.00 0.00 0.00 78 1009.4
20260506115516 66 248 3.0 11.0 0.00 0.00 0.00 79 1009.2
20260506114516 65 225 1.0 9.0 0.00 0.00 0.00 79 1009.4
20260506113516 65 225 6.0 14.0 0.00 0.00 0.00 79 1009.2
20260506112516 65 0.0 5.0 0.00 0.00 0.00 79 1009.4
20260506111536 65 225 1.0 10.0 0.00 0.00 0.00 79 1009.5
20260506110516 65 225 5.0 16.0 0.00 0.00 0.00 79 1009.2
20260506105516 65 225 3.0 13.0 0.00 0.00 0.00 79 1009.2
20260506104536 65 225 3.0 12.0 0.00 0.00 0.00 79 1009.0
20260506103516 65 225 4.0 11.0 0.00 0.00 0.00 80 1009.1
20260506102516 65 225 2.0 10.0 0.00 0.00 0.00 80 1009.0
20260506101536 65 225 2.0 12.0 0.00 0.00 0.00 80 1009.0
20260506100516 65 225 1.0 7.0 0.00 0.00 0.00 79 1009.1
20260506095516 65 225 2.0 9.0 0.00 0.00 0.00 79 1009.1
20260506094516 65 0.0 4.0 0.00 0.00 0.00 79 1009.0
20260506093516 66 248 3.0 9.0 0.00 0.00 0.00 79 1009.0
20260506092516 66 225 2.0 10.0 0.00 0.00 0.00 79 1009.0
20260506091516 66 225 3.0 9.0 0.00 0.00 0.00 79 1009.1
20260506090516 66 225 2.0 10.0 0.00 0.00 0.00 80 1009.1
20260506085516 65 225 1.0 5.0 0.00 0.00 0.00 80 1009.1
20260506084517 65 0.0 4.0 0.00 0.00 0.00 80 1009.2
20260506083517 65 0.0 5.0 0.00 0.00 0.00 80 1009.2
20260506082516 66 0.0 0.0 0.00 0.00 0.00 79 1009.2
20260506081516 66 180 1.0 11.0 0.00 0.00 0.00 78 1009.2
20260506080516 66 225 2.0 11.0 0.00 0.00 0.00 78 1009.2
20260506073516 67 225 3.0 13.0 0.00 0.00 0.00 76 1009.2
20260506072536 67 225 4.0 10.0 0.00 0.00 0.00 75 1009.3
20260506071516 68 225 6.0 13.0 0.00 0.00 0.00 74 1009.3
20260506070516 68 248 3.0 12.0 0.00 0.00 0.00 73 1009.3
20260506062516 69 248 3.0 9.0 0.00 0.00 0.00 71 1009.7
20260506061516 69 225 3.0 10.0 0.00 0.00 0.00 70 1009.8
20260506060516 69 225 2.0 9.0 0.00 0.00 0.00 70 1009.8
20260506050536 69 248 1.0 8.0 0.00 0.00 0.00 67 1010.4
20260506044516 69 248 3.0 8.0 0.00 0.00 0.00 66 1010.3
20260506043536 69 225 4.0 14.0 0.00 0.00 0.00 65 1010.3
20260506042516 69 248 5.0 10.0 0.00 0.00 0.00 65 1010.3
20260506041516 69 248 4.0 16.0 0.00 0.00 0.00 65 1010.3
20260506040516 69 248 7.0 11.0 0.00 0.00 0.00 65 1010.3
20260506040016 69 225 4.0 12.0 0.00 0.00 0.00 65 1010.2
20260506035036 70 225 7.0 16.0 0.00 0.00 0.00 65 1010.2
20260506034016 70 225 5.0 13.0 0.00 0.00 0.00 65 1010.1
20260506033016 70 225 7.0 14.0 0.00 0.00 0.00 64 1010.1
20260506032016 70 225 1.0 9.0 0.00 0.00 0.00 64 1010.0
20260506031016 70 225 4.0 12.0 0.00 0.00 0.00 64 1010.0
20260506030036 70 225 6.0 16.0 0.00 0.00 0.00 63 1010.0
20260506025016 71 225 5.0 14.0 0.00 0.00 0.00 62 1010.0
20260506024016 71 225 5.0 14.0 0.00 0.00 0.00 61 1010.2
20260506023016 72 225 4.0 11.0 0.00 0.00 0.00 59 1010.2
20260506022016 72 225 6.0 12.0 0.00 0.00 0.00 57 1010.0
20260506021036 72 248 4.0 11.0 0.00 0.00 0.00 56 1010.0
20260506020016 73 225 2.0 10.0 0.00 0.00 0.00 54 1010.1
20260506015016 74 225 4.0 9.0 0.00 0.00 0.00 51 1010.0
20260506014016 74 225 4.0 14.0 0.00 0.00 0.00 50 1009.9
20260506013056 75 203 5.0 12.0 0.00 0.00 0.00 49 1009.7
20260506012016 75 225 9.0 19.0 0.00 0.00 0.00 48 1009.6
20260506011016 75 225 6.0 15.0 0.00 0.00 0.00 47 1009.6
20260506010016 76 225 6.0 11.0 0.00 0.00 0.00 47 1009.5
20260506005016 76 225 5.0 15.0 0.00 0.00 0.00 47 1009.5
20260506004017 76 225 5.0 12.0 0.00 0.00 0.00 47 1009.3
20260506003016 76 225 7.0 14.0 0.00 0.00 0.00 47 1009.2
20260506002016 77 203 6.0 13.0 0.00 0.00 0.00 47 1009.1
20260506001016 77 225 6.0 13.0 0.00 0.00 0.00 47 1008.9
20260506000016 77 225 6.0 13.0 0.00 0.00 0.00 47 1008.9
20260505235036 77 225 5.0 14.0 0.00 0.00 0.00 46 1008.7
20260505234016 78 225 6.0 15.0 0.00 0.00 0.00 45 1008.7
20260505233016 78 225 5.0 11.0 0.00 0.00 0.00 44 1008.7
20260505232017 79 225 4.0 10.0 0.00 0.00 0.00 41 1008.6
20260505231016 79 248 7.0 15.0 0.00 0.00 0.00 40 1008.6
20260505230016 80 225 7.0 16.0 0.00 0.00 0.00 40 1008.5
20260505225017 80 225 7.0 14.0 0.00 0.00 0.00 39 1008.4
20260505224016 80 225 10.0 18.0 0.00 0.00 0.00 38 1008.3
20260505223016 81 248 7.0 16.0 0.00 0.00 0.00 38 1008.3
20260505222016 81 248 9.0 17.0 0.00 0.00 0.00 37 1008.3
20260505221016 80 248 8.0 19.0 0.00 0.00 0.00 37 1008.2
20260505220016 80 225 8.0 18.0 0.00 0.00 0.00 36 1008.2
20260505215016 81 248 10.0 19.0 0.00 0.00 0.00 36 1008.3
20260505214116 81 248 10.0 17.0 0.00 0.00 0.00 35 1008.0
20260505212056 81 225 8.0 22.0 0.00 0.00 0.00 35 1008.1